Wind_Speed
74 72 78 64 67 71 68 65 61 51 53 54 61 51 48 47 47 37 37 40 40 37 38 41 41 47 44 44 42 39 45 44 45 44 44 45 47 46 44 43 41 41 40 40
77 71 81 86 77 68 72 66 61 62 60 54 49 55 54 55 55 51 50 44 45 49 51 51 43 47 47 50 53 51 49 52 51 49 49 50 50 51 50 49 47 46 48 47
85 78 78 81 86 77 75 71 75 69 63 57 52 51 55 49 51 53 53 49 54 54 54 50 49 50 53 56 57 59 58 57 57 53 53 53 53 55 55 54 54 53 53 53
97 89 90 84 77 75 78 78 81 76 70 65 57 54 57 60 59 56 57 56 56 60 60 58 56 55 61 60 63 62 62 65 65 63 60 56 54 55 56 57 57 58 58 58
97 95 89 87 83 80 78 78 81 78 69 71 67 64 66 63 62 64 65 61 63 66 65 66 61 65 73 64 65 66 67 67 67 67 65 61 59 58 58 60 60 60 63 63
96 94 91 89 90 92 83 87 81 84 86 73 74 73 71 73 68 66 67 68 69 68 69 65 69 73 69 73 70 70 70 72 70 70 69 65 64 62 63 62 64 65 66 68
99 99 97 90 90 86 81 84 88 86 85 80 78 80 76 72 74 73 73 76 78 74 75 77 75 78 82 76 74 74 74 75 76 76 74 71 68 66 65 67 69 70 71 73
104 104 105 101 95 91 88 88 90 90 88 85 84 82 81 80 77 80 83 85 85 78 81 84 84 84 84 83 81 78 80 79 80 80 78 75 75 74 73 72 72 74 76 78
118 111 105 106 112 109 104 105 103 95 92 91 91 90 89 87 86 88 87 89 90 88 89 90 88 88 88 83 83 81 83 85 84 84 82 81 80 77 77 78 78 78 81 82
117 121 116 112 108 109 104 105 102 99 97 98 96 91 91 90 88 90 92 89 91 94 97 96 95 93 90 89 85 86 87 86 86 86 84 83 83 83 83 82 84 84 85 87
114 115 114 119 117 113 110 109 110 110 108 101 97 98 95 95 96 97 94 93 96 98 99 97 97 95 94 93 92 93 90 90 90 89 88 88 88 88 89 88 90 91 91 89
106 108 112 106 110 115 116 116 116 112 106 107 107 104 101 99 98 96 97 100 100 101 100 98 97 95 93 94 94 95 93 93 92 93 93 95 95 95 95 95 96 95 96 96
103 107 111 113 112 109 107 106 106 105 105 103 103 94 98 98 99 101 103 102 98 96 96 97 95 94 94 96 95 94 94 94 95 96 98 99 100 99 99 99 99 99 100 101
102 103 103 101 99 102 102 102 101 103 106 99 97 96 100 99 101 103 103 100 99 99 97 96 96 98 98 99 97 96 98 99 100 101 102 102 102 103 104 105 106 106 106 106
102 104 103 99 96 97 97 97 98 99 95 100 90 96 96 97 101 102 102 101 103 104 104 102 102 103 102 102 102 103 104 104 103 104 106 108 109 110 110 111 111 110 111 111
103 100 101 102 101 102 104 102 101 102 102 101 97 98 98 101 101 101 104 103 105 104 105 103 104 106 106 106 107 108 109 109 110 111 113 114 113 112 113 111 111 111 114 117
108 109 108 105 101 104 106 100 101 102 103 103 102 99 102 105 106 107 107 108 107 109 108 108 110 111 112 113 114 115 117 119 118 118 115 114 113 114 115 116 118 122 126 130
110 109 110 113 112 112 100 98 102 104 105 105 104 105 108 109 110 111 111 112 113 114 114 115 116 117 117 118 117 114 111 112 113 115 117 118 120 124 128 130 132 131 131 123
110 113 113 111 109 109 106 105 106 106 106 110 111 110 111 114 115 116 118 119 119 119 118 117 117 118 115 114 114 116 118 119 122 125 128 131 134 130 129 124 118 108 107 108
117 115 117 115 114 112 105 105 108 112 109 112 114 113 114 117 119 120 121 120 120 119 117 116 117 119 121 124 126 126 126 125 124 128 131 127 125 115 111 107 106 107 108 107
107 109 117 122 123 120 116 113 113 112 104 112 111 112 115 116 116 118 119 119 119 119 121 123 125 126 124 125 125 125 126 126 124 118 115 115 114 106 109 111 111 115 114 115
99 102 101 101 104 105 105 113 117 115 117 115 115 114 115 116 116 116 119 123 123 118 117 116 115 116 121 119 115 114 114 111 112 114 115 113 113 114 116 119 119 124 128 131
99 98 97 97 92 91 87 90 96 98 100 102 105 105 103 101 102 105 109 111 111 110 110 110 112 113 113 111 111 111 110 114 115 116 119 117 119 121 125 128 124 125 132 139
99 95 96 96 93 92 90 92 94 94 98 98 96 97 99 101 102 102 104 107 107 107 108 111 111 111 111 113 114 116 120 119 116 115 122 127 128 130 133 136 140 143 145 145
106 104 98 99 96 99 100 100 102 101 101 102 102 101 103 105 105 105 105 106 108 110 112 113 113 116 116 115 117 117 117 117 118 122 127 130 133 136 139 140 136 135 135 136
111 109 110 109 110 110 109 109 108 108 108 109 107 107 106 106 110 112 113 113 114 115 117 117 116 115 117 120 123 123 125 126 125 127 126 128 132 133 134 133 132 131 125 123
Wind_Direction
222 227 226 229 228 230 237 239 246 248 246 260 251 256 255 263 258 261 273 271 275 277 292 302 296 303 306 308 315 313 318 322 318 310 313 310 308 306 306 309 310 308 307 310
224 226 232 233 233 241 233 244 243 243 247 244 256 255 262 257 261 261 271 269 274 284 287 292 291 298 300 303 304 311 314 316 316 310 307 307 305 301 302 301 302 305 305 305
223 227 231 232 237 237 238 244 247 242 251 244 248 257 255 256 258 262 271 273 281 284 291 288 291 298 300 302 298 307 309 311 313 309 305 303 304 299 298 299 298 300 302 300
230 231 229 236 233 238 240 240 246 247 248 245 246 255 257 260 260 263 272 273 276 285 285 287 288 293 298 298 298 301 302 306 308 307 305 300 300 299 296 294 295 295 296 296
229 230 227 230 234 238 238 242 243 244 247 248 249 252 261 256 260 267 272 271 279 284 283 285 284 292 298 294 298 297 299 302 304 306 303 300 299 296 294 292 292 293 292 291
226 229 233 238 239 242 241 242 245 246 247 249 252 253 259 264 262 263 266 274 279 282 283 280 283 291 294 296 293 294 298 299 301 299 299 297 297 294 293 292 290 289 291 291
228 231 233 234 233 236 239 241 244 246 249 251 254 255 257 260 266 267 267 273 276 279 281 285 284 287 293 291 291 292 295 297 296 296 298 297 295 293 292 291 290 289 291 291
232 233 233 235 237 238 238 242 244 244 247 252 253 258 261 262 264 267 271 276 277 277 280 283 284 286 289 289 287 291 292 293 292 293 293 294 292 294 292 290 289 288 289 290
237 234 236 239 243 243 245 246 249 250 252 254 257 259 262 266 269 269 271 276 278 278 280 281 281 282 284 286 285 285 289 288 288 289 290 291 290 290 294 291 289 288 287 288
230 233 234 236 238 242 245 244 246 249 252 257 260 257 264 264 266 269 271 272 275 277 280 281 282 283 283 284 284 285 286 286 286 287 287 288 290 289 290 289 288 286 285 285
229 231 235 237 241 243 244 246 250 252 254 256 257 258 260 261 265 269 268 269 272 274 276 277 278 280 281 282 283 285 285 285 285 286 287 289 287 288 289 288 290 288 287 287
231 232 233 234 238 241 243 246 247 249 251 255 255 257 261 263 265 265 265 270 271 271 271 273 276 278 278 280 281 282 282 284 286 287 289 289 288 288 288 289 288 288 287 288
231 233 234 236 239 242 246 248 249 252 254 255 256 259 260 261 262 264 267 268 270 270 271 271 272 272 274 276 278 279 281 282 282 283 285 286 286 286 286 285 286 286 287 288
233 234 237 240 242 240 241 243 245 248 250 253 254 256 258 261 262 262 265 266 267 269 270 269 270 273 274 275 276 276 277 278 279 280 280 281 282 283 283 283 284 284 285 286
236 238 237 237 238 242 245 245 247 249 252 254 255 257 259 260 261 263 263 263 264 267 268 270 272 272 273 273 275 276 277 277 277 278 280 281 281 281 282 282 284 284 285 285
233 237 241 241 242 242 242 244 247 250 252 254 254 254 257 259 259 261 263 264 265 266 268 270 271 271 271 272 272 274 275 277 277 279 279 281 282 283 283 284 285 285 286 286
234 235 237 239 241 242 242 244 246 249 252 254 255 256 256 259 262 262 263 264 265 267 268 268 269 271 272 273 274 275 277 278 278 278 280 280 280 280 281 281 281 281 283 284
234 237 239 240 241 241 243 244 246 249 251 253 254 254 256 257 259 261 263 265 266 267 268 269 271 273 275 275 277 278 278 278 278 278 279 279 280 281 283 284 286 286 285 284
237 238 240 241 242 244 244 244 245 246 248 252 255 257 258 259 260 262 264 266 268 269 271 272 272 274 274 275 275 276 276 277 279 280 281 283 285 285 285 284 283 283 284 282
240 242 242 244 245 245 246 249 250 251 252 252 252 255 257 259 261 263 264 265 267 268 270 271 272 273 274 275 276 279 281 283 284 283 284 283 284 283 281 278 276 278 279 279
242 244 246 246 247 248 248 251 253 255 255 255 257 257 258 260 261 263 264 265 267 269 270 272 274 276 279 280 279 278 280 280 279 279 280 279 280 278 277 278 279 278 279 281
244 245 246 247 249 250 252 254 256 258 257 257 258 259 260 261 262 264 265 267 269 272 273 273 274 276 276 275 277 278 276 275 277 278 278 277 279 278 276 278 279 280 278 276
244 245 246 247 249 250 251 254 256 257 257 258 259 260 261 263 264 265 266 266 268 268 269 270 271 273 273 273 274 275 276 276 277 277 278 278 278 280 280 280 281 280 279 278
251 249 249 247 251 252 255 256 257 259 259 259 260 259 261 263 263 265 266 265 266 269 271 270 271 272 274 275 276 277 278 277 278 281 279 277 279 279 281 282 282 282 281 282
250 252 256 259 259 260 259 258 258 259 261 262 263 264 265 266 267 269 270 269 270 271 274 271 270 271 272 274 275 278 278 278 280 281 281 280 279 280 280 282 285 286 286 286
251 252 253 256 257 259 261 264 266 266 267 269 268 267 268 269 268 268 270 272 272 273 273 273 274 275 276 279 282 283 282 282 283 284 286 288 287 286 285 286 287 289 289 289
Height
10715 10724 10737 10733 10737 10748 10757 10764 10771 10777 10782 10785 10787 10790 10795 10796 10795 10800 10803 10806 10809 10814 10818 10815 10812 10811 10811 10812 10813 10813 10812 10811 10809 10806 10804 10801 10798 10796 10795 10794 10792 10788 10786 10782
10703 10716 10711 10720 10732 10740 10749 10755 10759 10763 10769 10777 10778 10779 10785 10787 10787 10793 10795 10798 10799 10805 10809 10808 10807 10805 10804 10803 10802 10802 10803 10802 10802 10799 10796 10791 10789 10785 10784 10783 10782 10781 10778 10774
10688 10690 10698 10711 10720 10729 10737 10741 10744 10753 10761 10768 10769 10769 10773 10777 10778 10783 10787 10792 10792 10794 10797 10797 10796 10796 10795 10794 10793 10791 10791 10791 10791 10790 10787 10783 10780 10776 10774 10772 10769 10768 10767 10765
10672 10680 10692 10702 10710 10718 10724 10725 10733 10742 10750 10757 10759 10762 10760 10767 10772 10772 10776 10781 10784 10784 10784 10785 10784 10784 10784 10783 10782 10781 10780 10778 10777 10778 10775 10773 10771 10767 10765 10762 10760 10757 10754 10752
10666 10669 10677 10686 10694 10699 10708 10713 10721 10729 10736 10745 10748 10752 10747 10754 10762 10763 10767 10770 10772 10773 10772 10773 10771 10771 10773 10772 10770 10769 10768 10767 10766 10764 10762 10759 10758 10755 10752 10750 10748 10747 10743 10740
10651 10657 10665 10676 10681 10689 10695 10701 10708 10715 10722 10733 10734 10739 10739 10741 10748 10753 10757 10758 10759 10759 10757 10758 10759 10759 10759 10758 10757 10755 10754 10753 10753 10752 10750 10748 10746 10743 10739 10737 10735 10732 10731 10727
10639 10644 10654 10660 10664 10675 10683 10686 10690 10697 10707 10720 10718 10722 10730 10733 10734 10739 10743 10744 10745 10746 10745 10745 10744 10744 10744 10744 10743 10741 10741 10739 10737 10736 10735 10733 10730 10728 10725 10722 10719 10715 10713 10710
10621 10629 10639 10647 10650 10658 10659 10664 10673 10679 10690 10701 10705 10711 10718 10724 10726 10724 10722 10724 10729 10730 10731 10730 10729 10728 10728 10729 10728 10727 10726 10723 10721 10718 10718 10716 10713 10711 10710 10707 10704 10700 10696 10692
10605 10612 10620 10627 10630 10635 10648 10656 10658 10664 10673 10684 10694 10703 10704 10706 10713 10712 10709 10707 10708 10710 10711 10712 10714 10714 10713 10712 10711 10710 10709 10706 10705 10702 10700 10699 10696 10694 10692 10689 10686 10682 10678 10674
10580 10588 10597 10602 10607 10617 10634 10635 10641 10652 10661 10668 10677 10684 10690 10690 10692 10695 10697 10695 10693 10690 10689 10688 10689 10690 10693 10694 10695 10695 10693 10690 10687 10685 10683 10680 10677 10674 10672 10669 10666 10662 10658 10654
10560 10568 10578 10582 10595 10608 10610 10621 10625 10630 10640 10652 10662 10669 10673 10673 10675 10676 10677 10679 10679 10676 10672 10671 10671 10672 10671 10671 10670 10670 10669 10667 10665 10664 10662 10660 10657 10654 10650 10648 10644 10640 10636 10632
10540 10546 10553 10566 10573 10581 10591 10602 10607 10614 10631 10632 10640 10653 10658 10658 10658 10658 10657 10657 10655 10655 10656 10657 10656 10655 10653 10653 10651 10649 10647 10644 10643 10641 10638 10634 10631 10629 10626 10623 10619 10615 10610 10606
10526 10532 10541 10548 10561 10577 10588 10595 10598 10600 10603 10614 10616 10641 10633 10637 10637 10634 10632 10631 10635 10636 10637 10638 10638 10639 10638 10636 10634 10630 10627 10624 10622 10620 10617 10614 10611 10608 10605 10600 10596 10592 10587 10583
10502 10515 10528 10546 10557 10555 10561 10569 10572 10572 10576 10599 10603 10610 10612 10615 10614 10611 10611 10613 10614 10615 10615 10616 10617 10617 10615 10614 10613 10613 10610 10607 10605 10604 10600 10596 10593 10589 10584 10580 10575 10570 10567 10562
10488 10501 10512 10525 10534 10539 10547 10552 10553 10556 10571 10564 10594 10586 10588 10591 10584 10589 10592 10593 10595 10594 10594 10594 10595 10594 10593 10592 10591 10591 10589 10586 10584 10582 10578 10574 10570 10567 10563 10559 10554 10548 10543 10537
10478 10488 10494 10503 10513 10520 10526 10530 10536 10541 10545 10554 10567 10565 10568 10562 10563 10564 10565 10569 10570 10570 10572 10573 10574 10572 10570 10569 10568 10566 10564 10563 10559 10557 10555 10552 10546 10542 10538 10534 10528 10522 10516 10511
10462 10471 10476 10484 10491 10495 10499 10523 10519 10524 10529 10532 10540 10548 10542 10539 10540 10540 10545 10547 10547 10547 10547 10545 10545 10545 10545 10543 10542 10541 10540 10538 10535 10531 10529 10526 10523 10518 10514 10510 10504 10498 10493 10485
10444 10452 10456 10462 10469 10466 10499 10503 10505 10506 10509 10511 10518 10520 10517 10516 10514 10517 10521 10523 10524 10524 10524 10522 10520 10520 10519 10518 10515 10513 10512 10508 10504 10500 10497 10495 10493 10488 10483 10477 10470 10462 10455 10448
10424 10429 10433 10436 10448 10454 10472 10484 10482 10483 10492 10490 10492 10495 10495 10492 10490 10497 10498 10497 10497 10496 10494 10493 10493 10494 10493 10492 10489 10485 10482 10478 10475 10471 10466 10462 10460 10455 10449 10443 10436 10429 10424 10417
10403 10407 10412 10420 10425 10438 10453 10456 10457 10459 10471 10475 10469 10467 10468 10471 10473 10469 10471 10471 10472 10470 10470 10467 10465 10463 10462 10460 10458 10455 10451 10447 10441 10438 10434 10428 10424 10420 10416 10412 10407 10402 10397 10391
10380 10384 10388 10394 10400 10416 10431 10432 10432 10439 10454 10439 10442 10443 10444 10447 10449 10445 10445 10445 10446 10445 10442 10440 10437 10434 10435 10432 10428 10424 10421 10418 10412 10407 10402 10397 10393 10391 10388 10386 10379 10374 10367 10359
10361 10361 10367 10372 10378 10394 10410 10407 10409 10409 10411 10418 10417 10417 10418 10420 10422 10423 10422 10422 10421 10418 10415 10413 10408 10404 10404 10404 10400 10395 10392 10390 10385 10379 10373 10368 10363 10359 10355 10350 10344 10335 10329 10324
10335 10341 10347 10351 10362 10372 10382 10383 10382 10384 10385 10389 10393 10393 10393 10394 10394 10394 10395 10395 10392 10389 10386 10384 10381 10378 10376 10376 10373 10369 10365 10362 10358 10350 10343 10336 10331 10325 10317 10310 10304 10299 10290 10282
10308 10318 10322 10332 10346 10350 10355 10359 10359 10359 10359 10362 10368 10370 10370 10369 10368 10369 10368 10367 10366 10363 10359 10356 10354 10350 10344 10345 10341 10339 10336 10331 10327 10319 10311 10303 10296 10287 10277 10269 10263 10257 10251 10243
10290 10297 10311 10309 10321 10319 10321 10325 10326 10329 10335 10339 10341 10342 10343 10343 10341 10340 10339 10337 10335 10333 10332 10330 10326 10320 10314 10312 10310 10306 10303 10298 10291 10286 10276 10266 10257 10248 10241 10231 10222 10214 10208 10202
10276 10286 10285 10291 10287 10288 10295 10297 10303 10303 10303 10304 10308 10312 10316 10316 10312 10309 10307 10306 10306 10304 10301 10297 10294 10290 10283 10279 10273 10267 10265 10259 10252 10246 10237 10227 10218 10209 10202 10194 10186 10174 10172 10164